Location: Newark
(44.5208°N, 2.4294°E)
Time: 13:00:07
(UTC+00:00)

Envisat - Pass Details

Date: 22 September 2019
Orbit: 764 x 766 km, 98.1° (Epoch: 19 October)

Event Time Altitude Azimuth Distance (km) Brightness Sun altitude
Rises 18:08:01 0° 173° (S) 3,219 6.1 -4.3°
Reaches altitude 10° 18:10:19 10° 176° (S) 2,297 5.4 -4.7°
Maximum altitude 18:15:21 67° 258° (WSW) 833 3.5 -5.6°
Drops below altitude 10° 18:20:26 10° 341° (NNW) 2,313 5.8 -6.5°
Sets 18:22:46 0° 345° (NNW) 3,244 6.6 -6.9°
